Wise, VA

10:18 PM EST on December 09, 2016 (GMT -0500)
Lonesome Pine

Weather History for KLNP - November, 2014

Change the Weather History Date:

Monday, November 24, 2014

  Actual Average Record
Temperature  
Mean Temperature 55 °F -  
Max Temperature 64 °F 50 °F 68 °F (2006)
Min Temperature 46 °F 33 °F 15 °F (2013)
Degree Days  
Heating Degree Days 10    
Growing Degree Days 5 (Base 50)    
Moisture  
Dew Point 41 °F    
Average Humidity 57    
Maximum Humidity 94    
Minimum Humidity 36    
Precipitation  
Precipitation 0.00 in - - ()
Sea Level Pressure  
Sea Level Pressure 29.73 in    
Wind  
Wind Speed 18 mph (SW)    
Max Wind Speed 33 mph    
Max Gust Speed 50 mph    
Visibility 10 miles    
Events      
Averages and records for this station are not official NWS values.
T = Trace of Precipitation, MM = Missing Value Source: NWS Daily Summary

Daily Weather History Graph

Daily Weather History Graph

Search for Another Location

Airport or City:

Trip Planner

Search our weather history database for the weather conditions in past years. The results will help you decide how hot, cold, wet, or windy it might be!

Date:

Astronomy

Nov. 24, 2014 Rise Set
Actual Time 7:17 AM EST 5:15 PM EST
Civil Twilight 6:49 AM EST 5:43 PM EST
Nautical Twilight 6:17 AM EST 6:15 PM EST
Astronomical Twilight 5:46 AM EST 6:46 PM EST
Moon 9:09 AM EST (11/24) 7:35 PM EST (11/24)
Length of Visible Light 10h 54m
Length of Day
9h 57m
Waxing Crescent, 6% of the Moon is Illuminated
Nov 24
Waxing Crescent
Nov 29
First Quarter
Dec 6
Full
Dec 14
Last Quarter
Dec 21
New

Hourly Weather History & Observations

Time (EST) Temp. Windchill Dew Point Humidity Pressure Visibility Wind Dir Wind Speed Gust Speed Precip Events Conditions
12:35 AM 55.4 °F - 51.8 °F 88% 29.61 in 10.0 mi South 12.7 mph 24.2 mph N/A   Overcast
12:55 AM 53.6 °F - 51.8 °F 94% 29.61 in 10.0 mi SSW 11.5 mph 25.3 mph N/A   Overcast
1:15 AM 55.4 °F - 51.8 °F 88% 29.62 in 10.0 mi SSW 20.7 mph 27.6 mph N/A   Overcast
1:35 AM 55.4 °F - 51.8 °F 88% 29.61 in 10.0 mi SSW 18.4 mph 26.5 mph N/A   Overcast
1:55 AM 57.2 °F - 48.2 °F 72% 29.61 in 10.0 mi SW 20.7 mph 33.4 mph N/A   Overcast
2:15 AM 57.2 °F - 50.0 °F 77% 29.62 in 10.0 mi SSW 20.7 mph 29.9 mph N/A   Overcast
2:35 AM 57.2 °F - 50.0 °F 77% 29.62 in 10.0 mi SSW 20.7 mph 25.3 mph N/A   Overcast
2:55 AM 57.2 °F - 50.0 °F 77% 29.63 in 10.0 mi SSW 16.1 mph 24.2 mph N/A   Overcast
3:15 AM 59.0 °F - 50.0 °F 72% 29.62 in 10.0 mi SW 18.4 mph 25.3 mph N/A   Overcast
3:35 AM 59.0 °F - 50.0 °F 72% 29.62 in 10.0 mi SW 19.6 mph 26.5 mph N/A   Overcast
3:55 AM 59.0 °F - 50.0 °F 72% 29.62 in 10.0 mi SW 19.6 mph 32.2 mph N/A   Overcast
4:15 AM 59.0 °F - 48.2 °F 67% 29.62 in 10.0 mi SSW 18.4 mph 31.1 mph N/A   Overcast
4:35 AM 59.0 °F - 48.2 °F 67% 29.61 in 10.0 mi SSW 20.7 mph 33.4 mph N/A   Overcast
4:55 AM 57.2 °F - 46.4 °F 67% 29.61 in 10.0 mi SSW 17.3 mph 32.2 mph N/A   Overcast
5:15 AM 57.2 °F - 46.4 °F 67% 29.61 in 10.0 mi SW 17.3 mph 28.8 mph N/A   Mostly Cloudy
5:35 AM 55.4 °F - 46.4 °F 72% 29.61 in 10.0 mi SW 24.2 mph 29.9 mph N/A   Scattered Clouds
6:15 AM 55.4 °F - 44.6 °F 67% 29.63 in 10.0 mi SW 21.9 mph 39.1 mph N/A   Mostly Cloudy
6:35 AM 57.2 °F - 44.6 °F 63% 29.63 in 10.0 mi SW 18.4 mph 39.1 mph N/A   Mostly Cloudy
6:50 AM 55.4 °F - 44.6 °F 67% 29.63 in 10.0 mi SSW 23.0 mph 41.4 mph N/A   Mostly Cloudy
7:35 AM 57.2 °F - 44.6 °F 63% 29.64 in 10.0 mi SSW 24.2 mph 49.5 mph N/A   Mostly Cloudy
7:55 AM 57.2 °F - 44.6 °F 63% 29.64 in 10.0 mi SSW 25.3 mph 41.4 mph N/A   Scattered Clouds
8:15 AM 57.2 °F - 44.6 °F 63% 29.65 in 10.0 mi SW 23.0 mph 35.7 mph N/A   Mostly Cloudy
8:35 AM 59.0 °F - 44.6 °F 59% 29.66 in 10.0 mi SW 19.6 mph 28.8 mph N/A   Unknown
8:55 AM 59.0 °F - 44.6 °F 59% 29.66 in 10.0 mi SSW 20.7 mph 34.5 mph N/A   Mostly Cloudy
9:15 AM 59.0 °F - 44.6 °F 59% 29.66 in 10.0 mi SSW 28.8 mph 36.8 mph N/A   Mostly Cloudy
9:35 AM 59.0 °F - 44.6 °F 59% 29.66 in 10.0 mi SSW 21.9 mph 32.2 mph N/A   Scattered Clouds
9:55 AM 60.8 °F - 44.6 °F 55% 29.67 in 10.0 mi SSW 19.6 mph 35.7 mph N/A   Mostly Cloudy
10:15 AM 60.8 °F - 44.6 °F 55% 29.69 in 10.0 mi SSW 26.5 mph 33.4 mph N/A   Overcast
10:35 AM 60.8 °F - 44.6 °F 55% 29.68 in 10.0 mi SSW 26.5 mph 43.7 mph N/A   Overcast
10:55 AM 60.8 °F - 44.6 °F 55% 29.69 in 10.0 mi SW 26.5 mph 41.4 mph N/A   Mostly Cloudy
11:15 AM 62.6 °F - 42.8 °F 48% 29.69 in 10.0 mi SW 32.2 mph 49.5 mph N/A   Mostly Cloudy
11:35 AM 62.6 °F - 42.8 °F 48% 29.69 in 10.0 mi SW 29.9 mph 43.7 mph N/A   Mostly Cloudy
11:55 AM 62.6 °F - 42.8 °F 48% 29.69 in 10.0 mi SW 28.8 mph 46.0 mph N/A   Mostly Cloudy
12:15 PM 62.6 °F - 41.0 °F 45% 29.69 in 10.0 mi SW 33.4 mph 49.5 mph N/A   Mostly Cloudy
12:35 PM 62.6 °F - 41.0 °F 45% 29.70 in 10.0 mi SW 25.3 mph 34.5 mph N/A   Mostly Cloudy
12:55 PM 60.8 °F - 42.8 °F 52% 29.70 in 10.0 mi SW 20.7 mph 29.9 mph N/A   Overcast
1:15 PM 60.8 °F - 42.8 °F 52% 29.71 in 10.0 mi SW 18.4 mph 32.2 mph N/A   Overcast
1:35 PM 62.6 °F - 41.0 °F 45% 29.70 in 10.0 mi SW 26.5 mph 36.8 mph N/A   Mostly Cloudy
1:55 PM 62.6 °F - 41.0 °F 45% 29.70 in 10.0 mi SW 26.5 mph 35.7 mph N/A   Mostly Cloudy
2:15 PM 62.6 °F - 41.0 °F 45% 29.72 in 10.0 mi SW 24.2 mph 31.1 mph N/A   Overcast
2:35 PM 62.6 °F - 41.0 °F 45% 29.72 in 10.0 mi SW 25.3 mph 39.1 mph N/A   Overcast
2:55 PM 62.6 °F - 41.0 °F 45% 29.72 in 10.0 mi SSW 18.4 mph 31.1 mph N/A   Mostly Cloudy
3:15 PM 62.6 °F - 41.0 °F 45% 29.73 in 10.0 mi SW 16.1 mph 28.8 mph N/A   Mostly Cloudy
3:35 PM 64.4 °F - 37.4 °F 37% 29.74 in 10.0 mi SW 24.2 mph 32.2 mph N/A   Scattered Clouds
4:15 PM 62.6 °F - 37.4 °F 39% 29.76 in 10.0 mi SW 20.7 mph 29.9 mph N/A   Scattered Clouds
4:35 PM 62.6 °F - 37.4 °F 39% 29.77 in 10.0 mi SW 24.2 mph 31.1 mph N/A   Scattered Clouds
4:55 PM 60.8 °F - 35.6 °F 39% 29.77 in 10.0 mi SW 18.4 mph 27.6 mph N/A   Clear
5:15 PM 60.8 °F - 33.8 °F 36% 29.79 in 10.0 mi SW 18.4 mph 31.1 mph N/A   Clear
5:35 PM 59.0 °F - 33.8 °F 39% 29.80 in 10.0 mi SW 21.9 mph 28.8 mph N/A   Clear
5:55 PM 59.0 °F - 33.8 °F 39% 29.81 in 10.0 mi SW 10.4 mph - N/A   Clear
6:35 PM 57.2 °F - 35.6 °F 44% 29.83 in 10.0 mi SW 12.7 mph 17.3 mph N/A   Scattered Clouds
6:55 PM 57.2 °F - 35.6 °F 44% 29.84 in 10.0 mi WSW 9.2 mph - N/A   Mostly Cloudy
7:15 PM 53.6 °F - 35.6 °F 51% 29.86 in 10.0 mi West 4.6 mph - N/A   Scattered Clouds
7:35 PM 53.6 °F - 35.6 °F 51% 29.87 in 10.0 mi WSW 3.5 mph - N/A   Clear
7:55 PM 50.0 °F - 35.6 °F 58% 29.88 in 10.0 mi West 4.6 mph - N/A   Clear
8:15 PM 51.8 °F - 35.6 °F 54% 29.88 in 10.0 mi West 5.8 mph - N/A   Clear
8:35 PM 51.8 °F - 35.6 °F 54% 29.89 in 10.0 mi West 8.1 mph - N/A   Clear
8:55 PM 50.0 °F - 35.6 °F 58% 29.89 in 10.0 mi WSW 8.1 mph - N/A   Clear
9:15 PM 50.0 °F - 33.8 °F 54% 29.90 in 10.0 mi West 6.9 mph - N/A   Clear
9:35 PM 50.0 °F - 33.8 °F 54% 29.91 in 10.0 mi West 3.5 mph - N/A   Clear
9:55 PM 48.2 °F - 32.0 °F 54% 29.93 in 10.0 mi Calm Calm - N/A   Clear
10:15 PM 50.0 °F - 32.0 °F 50% 29.94 in 10.0 mi WSW 3.5 mph - N/A   Clear
10:35 PM 48.2 °F - 28.4 °F 46% 29.95 in 10.0 mi West 5.8 mph - N/A   Clear
10:55 PM 46.4 °F 45.2 °F 28.4 °F 50% 29.95 in 10.0 mi WSW 3.5 mph - N/A   Clear
11:15 PM 46.4 °F - 28.4 °F 50% 29.96 in 10.0 mi Calm Calm - N/A   Clear
11:35 PM 46.4 °F 44.3 °F 32.0 °F 57% 29.96 in 10.0 mi WNW 4.6 mph - N/A   Clear
11:55 PM 46.4 °F 44.3 °F 32.0 °F 57% 29.98 in 10.0 mi West 4.6 mph - N/A   Clear